ASTROCAST-0101 (47430 NORAD) Tracking and Keplerian Element Data

This shows tracking and keplerian element data for the satellite.

Feedback or suggestion? Click here.




ElementValue
Catalog47430
NameASTROCAST-0101
Epoch Orbit1062
Epoch Day99.87766012
Epoch Year2021
RAAN162.3076
Inclination97.4963
Eccentricity0.00105
Argument of Perigee3.3473
Mean Anonmoly356.7827
Mean Motion15.12747861
Decay Rate4.66E-06
L11 47430U 21006T 21099.87766012 .00000466 00000-0 30236-4 0 9999
L22 47430 97.4963 162.3076 0010500 3.3473 356.7827 15.12747861 10628

Live tracking and technical data element details for ASTROCAST-0101 (NORAD 47430). ASTROCAST-0101 can be tracked NOW for your location showing map with azimuth and elevation plus other details from your city location.

Track the satellite on the map from your city or location and see movement details for azimuth, elevation, latitude, longitude, range, height, and movement on the map or in text.







IsCatalogInMostPopularTable: catalog: 47430, numindb: 15
Update: records affected: 1



GetName: 47430 ASTROCAST-0101

Hit Count: updated at: Sat, 10 Apr 2021 19:01:36 GMT